This demonstration page uses our WeatherBlox Daily Observations layout. Learn more.

38.89511, -77.03637

Hourly Observations for October 15, 2015

Temp ( °F °C ) Dew Point ( °F °C ) Humidity (%) Winds ( mph kmh ) Pressure ( in mb ) Visibility ( mi km ) Precip ( " mm )
12:52 am 00:52 Mostly Cloudy 55 12.8 47 8.3 74 74 NNW 3 6 29.96 1014 10 16.0934 0 0
1:52 am 01:52 Mostly Cloudy 57 13.9 46 7.8 67 67 N 5 7 29.97 1015 10 16.0934 0 0
2:52 am 02:52 Mostly Cloudy 56 13.3 45 7.2 67 67 N 6 9 29.99 1016 10 16.0934 0 0
3:52 am 03:52 Mostly Cloudy 55 12.8 45 7.2 69 69 N 5 7 29.99 1016 10 16.0934 0 0
4:52 am 04:52 Cloudy 56 13.3 45 7.2 67 67 NNW 9 15 30 1016 10 16.0934 0 0
5:52 am 05:52 Mostly Cloudy 55 12.8 44 6.7 67 67 NNW 10 17 30.02 1017 10 16.0934 0 0
6:52 am 06:52 Partly Cloudy 53 11.7 44 6.7 72 72 NNW 9 15 30.05 1018 10 16.0934 0 0
7:52 am 07:52 Partly Cloudy 54 12.2 44 6.7 69 69 NNW 9 15 30.06 1018 10 16.0934 0 0
8:52 am 08:52 Mostly Sunny 57 13.9 45 7.2 64 64 NNW 12 19 30.09 1019 10 16.0934 0 0
9:52 am 09:52 Mostly Sunny 60 15.6 45 7.2 58 58 NNW 15 24 30.1 1019 10 16.0934 0 0
10:52 am 10:52 Partly Cloudy 62 16.7 44 6.7 52 52 N 9 15 30.1 1019 10 16.0934 0 0
11:52 am 11:52 Mostly Sunny 63 17.2 42 5.6 47 47 NW 9 15 30.09 1019 10 16.0934 0 0
12:52 pm 12:52 Mostly Sunny 65 18.3 42 5.6 43 43 NW 10 17 30.08 1019 10 16.0934 0 0
1:52 pm 13:52 Mostly Sunny 66 18.9 41 5 40 40 W 12 19 30.05 1018 10 16.0934 0 0
2:52 pm 14:52 Partly Cloudy 67 19.4 40 4.4 37 37 W 12 19 30.04 1017 10 16.0934 0 0
3:52 pm 15:52 Mostly Sunny 68 20 41 5 38 38 NW 13 20 30.03 1017 10 16.0934 0 0
4:52 pm 16:52 Mostly Sunny 68 20 40 4.4 36 36 SW 7 11 30.03 1017 10 16.0934 0 0
5:52 pm 17:52 Mostly Sunny 65 18.3 41 5 42 42 WSW 6 9 30.02 1017 10 16.0934 0 0
6:52 pm 18:52 Clear 63 17.2 42 5.6 47 47 SSW 3 6 30.03 1017 10 16.0934 0 0
7:52 pm 19:52 Clear 59 15 51 10.6 75 75 S 6 9 30.04 1017 10 16.0934 0 0
8:52 pm 20:52 Clear 57 13.9 48 8.9 72 72 S 7 11 30.03 1017 10 16.0934 0 0
9:52 pm 21:52 Clear 57 13.9 49 9.4 74 74 S 7 11 30.02 1017 10 16.0934 0 0
10:52 pm 22:52 Clear 56 13.3 49 9.4 77 77 S 8 13 30.03 1017 10 16.0934 0 0
11:52 pm 23:52 Clear 56 13.3 49 9.4 77 77 SSE 7 11 30 1016 10 16.0934 0 0

Powered by AerisWeather